Regional Weather Roundup
Issued by NWS

Current Version | Previous Version | Text Only | Print | Product List | Glossary On
Versions: 1 2 3 4 5 6 7 8 9 10 11 12 13 14 15 16 17 18 19 20 21 22 23 24 25 26 27 28 29 30 31 32 33 34 35 36 37 38 39 40 41 42 43 44 45 46 47 48 49 50
000
ASUS44 KFWD 041015
RWRTX
NORTH TEXAS HOURLY WEATHER ROUNDUP
NATIONAL WEATHER SERVICE FORT WORTH TX
500 AM CDT WED AUG 04 2021

NOTE: "FAIR" INDICATES FEW OR NO CLOUDS BELOW 12,000 FEET WITH NO
SIGNIFICANT WEATHER AND/OR OBSTRUCTIONS TO VISIBILITY.

TXZ118-119-041100-
DALLAS/FORT WORTH METROPLEX

CITY           SKY/WX    TMP DP  RH WIND       PRES   REMARKS
DFW AIRPORT    MOCLDY    76  69  79 E5        29.99S
DALLAS LOVE    FAIR      77  68  73 SE3       30.00S
FTW MEACHAM    NOT AVBL
DAL-EXECUTIVE  FAIR      76  68  76 E3        30.00S
FTW-ALLIANCE   FAIR      78  67  68 CALM      30.01R
FTW-NAS-JRB    FAIR      77  70  79 CALM      30.01S
FTW-SPINKS     FAIR      70  68  94 CALM      30.02S FOG
ARLINGTON      FAIR      76  70  82 CALM      30.00F
GRAND PRAIRIE  FAIR      76  66  73 CALM      30.02S
ADDISON        MOCLDY    77  67  72 CALM      30.03R
MESQUITE       FAIR      71  70  96 CALM      30.01S
LANCASTER      FAIR      72  70  94 CALM      30.01S
$$

TXZ091>094-102>105-117-120-121-131>134-041100-
NORTH CENTRAL TEXAS

CITY           SKY/WX    TMP DP  RH WIND       PRES   REMARKS
SHRMAN/DENISON FAIR      72  68  89 E3        30.04S
GAINESVILLE    FAIR      70  69  95 NE3       30.05S
BOWIE          FAIR      69  65  89 CALM      30.03F
BRIDGEPORT     FAIR      68  68 100 CALM      30.04S
DECATUR        FAIR      73  67  82 CALM      30.03S
DENTON         CLOUDY    76  71  85 CALM      30.01S
MCKINNEY       FAIR      73  70  90 NE3       30.02S
BONHAM         FAIR      68  67  96 N5        30.03S FOG
GREENVILLE     FAIR      71  70  95 CALM      30.02S
ROCKWALL       MOCLDY    72  72 100 CALM      30.02S
TERRELL        FAIR      72  70  93 NE5       30.01S
WAXAHACHIE     FAIR      71  69  96 CALM      30.01S
CLEBURNE       CLEAR     70  68  94 CALM      30.03R
GRANBURY       FAIR      69  65  85 CALM      30.03R
$$

TXZ083>090-098>101-113>116-127>130-139>142-154-155-041100-
WESTERN NORTH TEXAS

CITY           SKY/WX    TMP DP  RH WIND       PRES   REMARKS
WICHITA FALLS  FAIR      68  65  90 N3        30.03S
WF-KICKAPOO    FAIR      70  64  79 CALM      30.05R
VERNON         FAIR      67  61  81 N5        30.06S
ABILENE        FAIR      66  58  75 SW5       30.06S
ABILENE-DYESS  FAIR      63  56  77 CALM      30.04S
BRECKENRIDGE   FAIR      68  60  75 CALM      30.03S HAZE
CISCO          CLOUDY    66  61  82 CALM      30.04S
EASTLAND       FAIR      63 N/A N/A CALM      30.05S
RANGER         FAIR      63  60  90 CALM      30.05R
MINERAL WELLS  FAIR      69  67  93 CALM      30.01S
STEPHENVILLE   FAIR      69  63  82 CALM      30.06S
COMANCHE       FAIR      67  66  96 CALM      30.05R
COLEMAN        FAIR      65  56  74 CALM      30.06S
BRADY            N/A    N/A N/A N/A MISG        N/A
SAN SABA       FAIR      67  65  93 CALM      30.05S
$$

TXZ143>147-156>162-174-175-041100-
CENTRAL TEXAS

CITY           SKY/WX    TMP DP  RH WIND       PRES   REMARKS
WACO           FAIR      70  68  93 CALM      29.99S
WACO-MCGREGOR  FAIR      68  67  96 NW3       30.00S
HILLSBORO      FAIR      73  73 100 E6        30.00S
CORSICANA      FAIR      74  70  87 E5        30.00S
MEXIA          FAIR      73  71  95 NE3       29.99R
HEARNE         FAIR      75  71  87 CALM      29.98S
CAMERON        FAIR      72  70  92 CALM      29.98S
TEMPLE         FAIR      69  69 100 N3        30.01R
KILLEEN        CLEAR     70  64  83 NE3       29.99S
KILLEEN-SKYLRK FAIR      69  67  93 N3        30.01S
FORT HOOD      CLEAR     72  66  82 CALM      30.01R
GATESVILLE     FAIR      66  64  94 CALM      30.03S
HAMILTON       FAIR      69  64  82 CALM      30.04R
LAMPASAS       FAIR      66  64  92 CALM      30.00S
$$

TXZ095>097-106>112-122>126-135>138-148>153-164>167-041100-
EAST TEXAS

CITY           SKY/WX    TMP DP  RH WIND       PRES   REMARKS
PARIS          FAIR      71  69  93 E5        30.03S
SULPHUR SPRNGS FAIR      71  70  98 CALM      30.04S FOG
MOUNT PLEASANT MOCLDY    73  70  89 CALM      30.02R
GILMER         FAIR      71  69  93 CALM      30.02S
MINEOLA        FAIR      70  70 100 CALM      30.01S FOG
TYLER          FAIR      74  69  85 E6        30.00S
LONGVIEW       MOCLDY    72  69  90 CALM      30.00S
MARSHALL       CLOUDY    70  67  90 CALM      30.03S
ATHENS           N/A     72  68  88 CALM      29.99S
PALESTINE      FAIR      73  70  88 NE3       29.98S
JACKSONVILLE   FAIR      71  69  92 E3        30.02S
HENDERSON      FAIR      72  68  88 CALM      30.02R
CENTER         FAIR      73  70  88 CALM      30.00S
NACOGDOCHES    FAIR      73  69  87 VRB5      29.99S
LUFKIN         FAIR      74  71  91 NE3       29.97S
$$

SUPPLEMENTAL OBSERVATIONS (NWS FORT WORTH AREA)

CITY           SKY/WX    TMP DP  RH WIND       PRES   REMARKS
CADDO GRASSLND   N/A     70  66  88 CALM        N/A
LBJ GRASSLAND    N/A     73  68  83 E2          N/A
COMANCHE         N/A     68  63  83 W2          N/A
MCGREGOR         N/A     68  66  94 CALM        N/A
LAKE LIMESTONE   N/A     73  70  88 NE2         N/A
$$

SUPPLEMENTAL OBSERVATIONS (NWS NORMAN AREA)

CITY           SKY/WX    TMP DP  RH WIND       PRES   REMARKS
GOODLETT         N/A     63  56  79 NE5       30.07R
ODELL            N/A     61  59  92 N3        30.07S
CROWELL          N/A     66  60  82 VRB5      30.07S
KNOX CITY        N/A     64  61  91 CALM      30.06R
SEYMOUR          N/A     65  60  83 CALM      30.05S
MILLERS CREEK    N/A     64  54  68 VRB3        N/A
$$

SUPPLEMENTAL OBSERVATIONS (NWS SAN ANGELO AREA)

CITY           SKY/WX    TMP DP  RH WIND       PRES   REMARKS
WEINERT          N/A     65  62  89 NE5       30.06S
HASKELL          N/A     66  60  80 NE5       30.06R
THROCKMORTON     N/A     67  59  76 CALM      30.05S
STAMFORD         N/A     67  62  85 CALM      30.07R
CLYDE            N/A     68  61  77 SE6       30.08R
HAMBY            N/A     63  55  77 W3          N/A
IVIE RESERVOIR   N/A     72  63  73 NE6         N/A
COLORADO BEND    N/A     66  63  88 CALM        N/A
$$

SUPPLEMENTAL OBSERVATIONS (NWS SHREVEPORT AREA)

CITY           SKY/WX    TMP DP  RH WIND       PRES   REMARKS
TEXARKANA        N/A     72  66  83 NE1         N/A
CADDO LAKE       N/A     70  68  94 CALM        N/A
N SABINE NF      N/A     70  68  94 MISG        N/A
$$

SUPPLEMENTAL OBSERVATIONS ARE A COLLECTION OF AUTOMATED INSTRUMENTS
THAT ARE MAINTAINED BY A VARIETY OF FEDERAL AND STATE AGENCIES.
CERTAIN ELEMENTS...SUCH AS HUMIDITY VALUES AND SUSTAINED WIND
SPEEDS...MAY BE APPROXIMATED.




USA.gov is the U.S. government's official web portal to all federal, state and local government web resources and services.